Location: Bush Observatory
(40.2653°N, 94.3194°W)
Time: 11:49:42
(UTC-06:00)

Vanguard 1 - Visible Passes

Search period start: 22 December 2014 00:00
Search period end: 01 January 2015 00:00
Orbit: 653 x 3834 km, 34.2° (Epoch: 20 December)

Date Brightness Start Highest point End Pass type
(mag) Time Alt. Az. Time Alt. Az. Time Alt. Az.
22 Dec 12.2 18:33:33 10° WSW 18:44:49 70° S 18:59:03 23° ESE visible
22 Dec 12.6 20:54:20 10° W 21:09:27 60° SSW 21:11:49 58° S visible
22 Dec 13.6 23:17:47 10° W 23:24:35 25° WSW 23:24:35 25° WSW visible
23 Dec 12.2 18:54:56 10° W 19:06:34 69° S 19:19:28 27° ESE visible
23 Dec 12.8 21:16:00 10° W 21:31:15 54° SSW 21:32:15 53° SSW visible
23 Dec 13.8 23:40:30 10° W 23:45:01 18° WSW 23:45:01 18° WSW visible
24 Dec 12.3 19:16:22 10° W 19:28:21 67° S 19:40:00 31° ESE visible
24 Dec 12.9 21:37:46 10° W 21:52:47 47° SSW 21:52:47 47° SSW visible
25 Dec 14.0 00:04:01 10° W 00:05:34 12° W 00:05:34 12° W visible
25 Dec 11.9 17:17:56 10° WSW 17:26:48 66° S 17:43:36 10° E visible
25 Dec 12.4 19:37:50 10° W 19:50:08 62° SSW 20:00:39 33° SE visible
25 Dec 13.1 21:59:43 10° W 22:13:27 39° SW 22:13:27 39° SW visible
26 Dec 11.9 17:39:13 10° WSW 17:48:24 67° S 18:05:45 10° E visible
26 Dec 12.5 19:59:21 10° W 20:11:54 56° SSW 20:21:27 35° SE visible
26 Dec 13.4 22:21:58 10° W 22:34:16 32° SW 22:34:16 32° SW visible
27 Dec 12.0 18:00:33 10° W 18:10:03 66° S 18:27:50 10° ESE visible
27 Dec 12.7 20:20:57 10° W 20:33:39 50° SSW 20:42:27 34° SSE visible
27 Dec 13.6 22:44:43 10° W 22:55:17 25° SW 22:55:17 25° SW visible
28 Dec 12.1 18:21:56 10° W 18:31:43 63° S 18:49:48 10° ESE visible
28 Dec 12.9 20:42:40 10° W 20:55:22 42° SSW 21:03:41 31° SSE visible
28 Dec 13.8 23:08:24 10° WSW 23:16:33 18° SW 23:16:33 18° SW visible
29 Dec 12.2 18:43:20 10° W 18:53:24 58° SSW 19:11:35 10° ESE visible
29 Dec 13.2 21:04:37 10° W 21:17:04 35° SSW 21:25:16 27° S visible
29 Dec 14.0 23:34:32 10° WSW 23:38:10 12° SW 23:38:10 12° SW visible
30 Dec 12.4 19:04:49 10° W 19:15:05 51° SSW 19:33:08 10° SE visible
30 Dec 13.4 21:26:54 10° W 21:38:45 28° SSW 21:47:18 21° S visible
31 Dec 12.7 19:26:23 10° W 19:36:46 44° SSW 19:54:21 10° SE visible
31 Dec 13.7 21:49:47 10° WSW 22:00:26 22° SW 22:10:08 15° S visible
